Regional Weather Roundup
Issued by NWS Charleston, SC

Current Version | Previous Version | Text Only | Print | Product List | Glossary Off
Versions: 1 2 3 4 5 6 7 8 9 10 11 12 13 14 15 16 17 18 19 20 21 22 23 24 25 26 27 28 29 30 31 32 33 34 35 36 37 38 39 40 41 42 43 44 45 46 47 48 49 50

000
ASUS42 KCHS 261411
RWRCHS

REGIONAL WEATHER ROUNDUP
NATIONAL WEATHER SERVICE CHARLESTON SC
900 AM EST SUN FEB 26 2017

NOTE: "FAIR" INDICATES FEW OR NO CLOUDS BELOW 12,000 FEET WITH NO
SIGNIFICANT WEATHER AND/OR OBSTRUCTIONS TO VISIBILITY.

NOT ALL STATIONS ARE QUALITY CONTROLLED. USE DATA WITH CAUTION...
ESPECIALLY DEWPOINT OBSERVATIONS.

SCZ027-030-031-034>040-042>050-261500-
...SOUTHEAST SOUTH CAROLINA...

CITY           SKY/WX    TMP DP  RH WIND       PRES   REMARKS
N CHARLESTON   SUNNY     53  26  35 N9        30.20R
WATERFRONT PRK   N/A     51  30  44 N6        30.18R
MOUNT PLEASANT LGT RAIN  52  28  40 NW8       30.20R
JOHNS ISLAND   FAIR      54  28  37 NW8       30.20R
PINOPOLIS        N/A     50  30  46 N10       30.11R
MONCKS CORNER  FAIR      50  23  34 N9        30.21R
SUMMERVILLE    FAIR      48  28  46 N5        30.22R
BEAUFORT MCAS  SUNNY     52  27  38 NW10      30.21R
BEAUFORT ARPT  FAIR      52  28  40 NW13      30.21R HAZE
HILTON HEAD IS SUNNY     52  28  40 N12       30.21R
WALTERBORO     SUNNY     48  27  43 NW6       30.22R
ALLENDALE      FAIR      48  25  40 N6        30.21R

...SOUTHERN MIDLANDS AND PEE DEE...

CITY           SKY/WX    TMP DP  RH WIND       PRES   REMARKS
GEORGETOWN     FAIR      50  25  37 N7        30.20R
KINGSTREE      FAIR      46  23  39 N6        30.21R
ORANGEBURG     SUNNY     49  22  34 N8        30.21R
BARNWELL       FAIR      48  27  43 NW8       30.22R
AIKEN          FAIR      43  23  45 NW7       30.24R
MANNING        FAIR      46  23  39 MISG      30.21R
COLUMBIA       SUNNY     48  19  31 N6        30.21R
SUMTER         SUNNY     47  19  33 N10       30.18R
FLORENCE       SUNNY     47  20  34 N9        30.21R
MYRTLE BEACH   SUNNY     50  21  32 N10       30.18R
N MYRTLE BEACH SUNNY     50  21  32 NE10      30.18R

$$

GAZ063-065-086>088-099>101-113>116-118-119-134>141-150-261500-
...SOUTHEAST GEORGIA...

CITY           SKY/WX    TMP DP  RH WIND       PRES   REMARKS
SAVANNAH ARPT  SUNNY     51  24  34 N10       30.23R
HUNTER AAF     SUNNY     52  29  41 N6        30.20R
FORT STEWART   SUNNY     51  27  40 N6        30.21R
STATESBORO     SUNNY     49  30  47 N8        30.22R
SYLVANIA       SUNNY    N/A N/A N/A N10       30.22R
CLAXTON        FAIR      49  31  50 CALM      30.23R

...CSRA...CENTRAL AND FAR SOUTHEAST GEORGIA...

CITY           SKY/WX    TMP DP  RH WIND       PRES   REMARKS
THOMSON        MOSUNNY   44  28  53 W3        30.26R
AUGUSTA-BUSH   SUNNY     49  26  41 NW6       30.21R
AUGUSTA-DANIEL MOSUNNY   47  21  35 NW9       30.22R
SWAINSBORO     FAIR      46  27  46 NW6       30.23R
VIDALIA        SUNNY     50  32  50 N8        30.22R
EASTMAN        FAIR      48  15  26 N7        30.26R
HAZLEHURST     FAIR      48  28  45 N6        30.22R
ALMA           SUNNY     49  27  42 VRB6      30.23R
WAYCROSS       SUNNY     53  33  45 N8        30.23R
JESUP          FAIR      50  27  40 N6        30.23R
BAXLEY         FAIR      50  32  50 N6        30.23R
BRUNSWICK      SUNNY     54  32  43 N8        30.22R
SAINT SIMONS   MOSUNNY   53  25  33 N12G22    30.21R

$$

SCZ027-028-034-036>038-045-046-048>050-GAZ119-141-261500-
...LAKE AND SUPPLEMENTAL COASTAL OBSERVATIONS...

STATION/POSITION TIME  TEMP    WIND        PRES    WAVE   SWELL
                       AIR SEA DIR/SP/G            HT/PER HT/PER/DIR
                 (UTC) (F)     (DEG/KT/KT) (MB)    (FT/S) (FT/S/D)
WINYAH BAY       NOT AVBL
LAKE MURRAY      1320   44     310/  2/  5 1022.0R
ACE BASIN NERRS  1245   47     310/  3     1021.0
FORT PULASKI     1348   50 63  350/ 12/ 14 1023.1R
SAPELO ISLAND    1300   51     340/  8     1022.0

$$

ANZ835-935-AMZ111-154-330-350-352-354-370-450-454-472-261500-
...C-MAN AND BUOY OBSERVATIONS...

STATION/POSITION TIME  TEMP    WIND        PRES    WAVE   SWELL
                       AIR SEA DIR/SP/G            HT/PER HT/PER/DIR
                 (UTC) (F)     (DEG/KT/KT) (MB)    (FT/S) (FT/S/D)
BUOY 41004       1350   57 69  350/ 12/ 16 1021.1R   5/ 5   3/100/10
BUOY 41008       1250   54 62  340/ 16/ 19 1021.0    4/ 4   2/ 90/11
FOLLY BEACH CMAN 1300   50     330/  4/  8 1021.8R
CAPERS NEARSHORE 1308   52 60  360/ 12/ 16 1020.8R
FRIPP NEARSHORE  1308   52 62  330/ 12/ 17 1021.7R


STATION/POSITION TIME  TEMP    WIND        PRES    WAVE   SWELL
                       AIR SEA DIR/SP/G            HT/PER HT/PER/DIR
                 (UTC) (F)     (DEG/KT/KT) (MB)    (FT/S) (FT/S/D)
5E ST. MARYS GA  1330      64                N/A     4/10   2/ 70/11
FRYING PAN BUOY  1350   54 70  340/ 16/ 21 1020.6    5/ 5   3/130/ 9
BUOY 41025       1350   52 72  340/ 17/ 21 1019.1R   6/10   3/110/10
CAPE LOOKOUT NC  1300   49     340/ 17/ 19 1019.3R
BUOY 41002       1350   70 71  310/ 14/ 17 1017.9R   8/ 7   7/320/ 7
BUOY 41010       NOT AVBL
ST AUGUSTINE FL  1400   58 65  360/ 17/ 18 1023.3R


$$



USA.gov is the U.S. government's official web portal to all federal, state and local government web resources and services.